Вернуться в каталог

HULIANWANG DIGUI-150

АктивенСвязьLEO
NORAD 67526·PAYLOAD·🇨🇳 China

Запущен Jan 19, 2026 с Wenchang Space Launch Site

Loading…

Ближайшие Пролёты (ближайшие 24 часа)

TLE

СвежийSource: Space-Track

Эпоха: Sep 14, 2026, 19:21 UTC

1 67526U 26013E   26257.80626244 -.00000105  00000-0  41242-4 0  9996
2 67526  50.0059  34.0654 0000858  85.6644 274.4326 13.29328112 31995

Отслеживайте HULIANWANG DIGUI-150 в реальном времени с AllMySat

Download on the App Store